SCP
0 0 0 0 0 0 0 0 0 0 0 0 0 0 0 0 0 0 0 0 0 0 0 0 0 0 0 0 0 0 0 0 0 0 0 0 0 0 0 0 0 0 0
0 0 0 0 0 0 0 0 0 0 0 0 0 0 0 0 0 0 0 0 0 0 0 0 0 0 0 0 0 0 0 0 0 0 0 0 0 0 0 0 0 0 0
0 0 0 0 0 0 0 0 0 0 0 0 0 0 0 0 0 0 0 0 0 0 0 0 0 0 0 0 0 0 0 0 0 0 0 0 0 0 0 0 0 0 0
0 0 0 0 0 0 0 0 0 0 0 0 0 0 0 0 0 0 0 0 0 0 0 0 0 0 0 0 0 0 0 0 0 0 0 0 0 0 0 0 0 0 0
0 0 0 0 0 0 0 0 0 0 0 0 0 0 0 0 0 0 0 0 0 0 0 0 0 0 0 0 0 0 0 0 0 0 0 0 0 0 0 0 0 0 0
0 0 0 0 0 0 0 0 0 0 0 0 0 0 0 0 0 0 0 0 0 0 0 0 0 0 0 0 0 0 0 0 0 0 0 0 0 0 0 0 0 0 0
0 0 0 0 0 0 0 0 0 0 0 0 0 0 0 0 0 0 0 0 0 0 0 0 0 0 0 0 0 0 0 0 0 0 0 0 0 0 0 0 0 0 0
0 0 0 0 0 0 0 0 0 0 0 0 0 0 0 0 0 0 0 0 0 0 0 0 0 0 0 0 0 0 0 0 0 0 0 0 0 0 0 0 0 0 0
0 0 0 0 0 0 0 0 0 0 0 0 0 0 0 0 0 0 0 0 0 0 0 0 0 0 0 0 0 0 0 0 0 0 0 0 0 0 0 0 0 0 0
0 0 0 0 0 0 0 0 0 0 0 0 0 0 0 0 0 0 0 0 0 0 0 0 0 0 0 0 0 0 0 0 0 0 0 0 0 0 0 0 0 0 0
0 0 0 0 0 0 0 0 0 0 0 0 0 0 0 0 0 0 0 0 0 0 0 0 0 0 0 0 0 0 0 0 0 0 0 0 0 0 0 0 0 0 0
0 0 0 0 0 0 0 0 0 0 0 0 0 0 0 0 0 0 0 0 0 0 0 0 0 0 0 0 0 0 0 0 0 0 0 0 0 0 0 0 0 0 0
0 0 0 0 0 0 0 0 0 0 0 0 0 0 0 0 0 0 0 0 0 0 0 0 0 0 0 0 0 0 0 0 0 0 0 0 0 0 0 0 0 0 0
0 0 0 0 0 0 0 0 0 0 0 0 0 0 0 0 0 0 0 0 0 0 0 0 0 0 0 0 0 0 0 0 0 0 0 0 0 0 0 0 0 0 0
0 0 0 0 0 0 0 0 0 0 0 0 0 0 0 0 0 0 0 0 0 0 0 0 0 0 0 0 0 0 0 0 0 0 0 0 0 -0 -0 -0 -0 -0 0
0 0 0 0 0 0 0 0 0 0 0 0 0 0 0 0 0 0 0 0 0 0 0 0 0 0 0 0 0 0 0 0 0 0 0 0 0 -0 -0 -0 0 0 0
0 0 0 0 0 0 0 0 0 0 0 0 0 0 0 0 0 0 0 0 0 0 0 0 0 0 0 0 0 0 0 0 0 0 0 0 0 0 0 0 0 0 0
0 0 0 0 0 0 0 0 0 0 0 0 0 0 0 0 0 0 0 0 0 0 0 0 0 0 0 0 0 0 0 0 0 0 0 0 0 0 0 0 0 0 0
0 0 0 0 0 0 0 0 0 0 0 0 0 0 0 0 0 0 0 0 0 0 0 0 0 0 0 0 0 0 0 0 0 0 0 0 0 0 0 0 0 0 0
0 0 0 0 0 0 0 0 0 0 0 0 0 0 0 0 0 0 0 0 0 0 0 0 0 0 0 0 0 0 0 0 0 0 0 0 0 0 0 0 0 0 0
0 0 0 0 0 0 0 0 0 0 0 0 0 0 0 0 0 0 0 0 0 0 0 0 0 0 0 0 0 0 0 0 0 0 0 0 0 0 0 0 0 0 0
0 0 0 0 0 0 0 0 0 0 0 0 0 0 0 0 0 0 0 0 0 0 0 0 0 0 0 0 0 0 0 0 0 0 0 0 0 0 0 0 0 0 0
0 0 0 0 0 0 0 0 0 0 0 0 0 0 0 0 0 0 0 0 0 0 0 0 0 0 0 0 0 0 0 0 0 0 0 0 0 0 0 0 0 0 0
0 0 0 0 0 0 0 0 0 0 0 0 0 0 0 0 0 0 0 0 0 0 0 0 0 0 0 0 0 0 0 0 0 0 0 0 0 0 0 0 0 0 0
0 0 0 0 0 0 0 0 0 0 0 0 0 0 0 0 0 0 0 0 0 0 0 0 0 0 0 0 0 0 0 0 0 0 0 0 0 0 0 0 0 0 0
0 0 0 0 0 0 0 0 0 0 0 0 0 0 0 0 0 0 0 0 0 0 0 0 0 0 0 0 0 0 0 0 0 0 0 0 0 0 0 0 0 0 0
Wind_Speed_500mb
15 14 13 14 16 19 22 25 28 31 34 38 40 44 47 48 50 54 56 59 62 65 66 70 74 74 77 79 80 81 84 85 94 129 102 101 100 102 105 99 98 91 91
12 12 15 18 19 21 24 28 32 36 40 45 48 51 53 55 57 60 64 66 70 72 74 75 77 76 79 79 79 79 80 81 87 103 118 106 107 111 111 107 105 98 92
10 12 14 17 21 25 31 36 42 47 51 56 60 62 63 64 65 66 68 71 72 73 75 78 81 82 84 81 78 80 78 81 82 85 103 99 101 101 108 105 105 100 95
10 13 17 22 26 30 36 43 49 54 58 60 61 63 64 65 65 67 70 72 74 75 75 77 80 83 86 86 84 85 83 80 78 84 92 101 100 99 104 104 106 101 97
8 14 21 26 35 40 46 52 58 61 62 64 67 66 67 69 70 74 77 81 83 85 83 82 83 84 84 83 83 85 77 74 76 82 87 83 91 85 93 99 103 101 102
15 23 31 39 45 52 57 61 61 63 65 68 71 75 77 76 76 77 81 87 87 87 89 87 85 86 86 87 86 80 67 66 73 79 89 92 98 88 83 89 93 91 85
23 32 40 48 53 56 58 60 63 67 71 75 78 82 85 85 84 85 85 90 93 93 91 91 91 87 85 87 86 84 80 71 62 70 81 89 93 90 86 86 85 85 89
32 41 48 52 54 57 60 63 67 72 77 81 83 86 89 89 87 88 90 91 94 94 92 90 90 89 82 75 77 81 79 77 74 69 68 76 82 86 80 78 74 73 73
40 44 47 51 54 58 63 67 70 75 77 80 82 86 89 89 84 83 86 90 94 94 92 89 86 84 75 59 67 75 79 77 72 68 64 65 69 71 68 65 63 54 57
41 43 46 52 58 64 69 72 75 77 81 83 84 80 79 82 78 76 79 83 87 88 87 84 79 71 67 62 61 63 69 70 66 63 57 57 52 55 51 41 36 39 43
39 44 49 55 63 68 75 76 78 79 81 83 85 84 85 81 77 70 66 68 71 77 78 79 73 62 56 52 51 55 60 61 58 50 47 41 38 36 28 19 18 21 25
40 45 52 58 63 69 74 75 75 77 81 83 85 86 84 81 76 70 59 52 56 60 65 64 58 53 53 51 45 41 39 37 33 29 30 25 25 27 23 14 9 7 10
43 50 56 61 64 66 70 72 75 75 78 81 80 84 85 80 73 59 53 57 54 48 51 48 49 43 36 32 27 25 28 27 23 21 21 23 20 16 15 15 11 9 6
47 52 57 63 66 67 69 70 73 75 75 74 75 77 77 74 65 57 59 61 54 45 44 39 29 25 23 26 27 25 25 26 24 21 19 18 17 17 18 19 16 16 12
50 54 57 63 67 70 71 72 73 71 65 68 67 66 64 64 54 57 59 49 44 38 37 24 20 19 18 22 25 31 25 24 26 24 22 22 25 23 23 22 19 18 19
51 53 57 63 67 69 72 76 70 68 57 50 50 48 50 49 49 55 44 33 28 30 21 16 16 14 16 17 19 26 34 29 28 25 22 20 21 22 23 23 22 22 20
49 52 58 61 64 66 68 70 76 68 52 40 41 37 36 44 45 39 33 26 28 25 18 14 12 11 12 14 17 20 22 22 20 17 14 12 13 16 20 21 20 18 15
47 51 56 58 59 60 61 61 59 60 61 49 30 36 37 40 41 36 28 25 26 23 16 11 9 9 11 12 14 16 17 16 15 14 12 13 14 16 19 19 18 16 15
45 47 51 54 55 54 53 53 49 46 43 43 44 38 39 37 35 30 24 23 25 21 16 10 8 7 8 10 12 15 16 16 17 17 16 16 17 18 17 17 16 15 15
43 43 46 48 50 48 44 42 40 35 35 36 38 39 35 22 17 17 15 14 13 12 11 8 6 7 8 10 12 12 13 14 15 16 17 17 17 17 16 16 15 15 14
40 40 41 41 43 43 41 36 33 31 31 31 30 30 26 18 14 13 12 10 10 8 8 8 7 8 11 13 14 16 19 21 22 22 22 21 20 19 18 17 16 16 16
37 37 37 37 37 37 35 33 30 29 28 28 27 25 22 17 14 12 10 10 9 9 9 9 11 14 16 18 22 25 26 26 25 24 22 21 20 19 18 18 17 17 17
34 36 36 35 34 33 32 30 28 27 26 26 26 24 21 19 16 15 12 11 10 10 13 16 19 22 25 27 26 24 21 20 19 19 19 19 18 18 18 18 17 17 18
33 34 35 34 33 32 31 30 29 28 28 27 26 24 22 19 17 16 15 15 17 21 23 26 26 25 23 20 18 19 19 19 19 19 20 20 20 20 20 19 20 20 20
34 35 34 34 33 32 31 30 29 29 28 27 27 26 25 24 21 20 22 25 28 29 28 25 21 19 19 19 19 19 20 22 23 24 26 27 27 27 26 26 25 24 23
35 35 35 35 34 34 33 33 32 32 31 31 32 32 33 32 31 30 30 30 28 26 24 22 22 22 23 24 26 28 30 32 33 35 35 36 36 35 34 33 32 30 29
Wind_Direction_500mb
83 64 47 28 13 0 352 347 342 338 334 332 330 328 325 323 320 317 315 313 311 309 308 305 303 303 298 295 288 282 280 277 273 284 284 288 288 286 293 289 291 291 289
67 42 25 14 6 357 351 345 339 336 333 329 325 323 322 320 318 316 313 312 310 309 309 307 305 304 300 299 295 289 283 275 276 278 286 285 284 289 289 293 293 292 290
54 31 16 2 353 346 342 336 332 328 325 323 321 319 318 318 317 315 313 312 310 308 308 307 306 304 302 302 299 294 291 288 279 277 282 286 286 285 288 288 291 291 291
28 6 354 343 338 332 328 325 323 321 318 316 314 314 314 313 313 312 310 308 307 307 306 306 305 304 304 304 301 297 295 289 289 285 283 285 286 287 287 287 290 291 292
348 337 331 329 328 326 325 323 321 320 320 319 319 318 318 317 318 315 312 310 309 307 306 305 304 303 303 303 303 301 299 294 286 284 282 284 285 284 286 292 292 295 295
331 330 328 326 326 324 323 321 321 320 319 318 317 317 316 315 315 314 313 311 310 309 309 308 305 303 302 300 300 299 295 290 288 287 286 286 286 285 286 288 289 289 289
326 326 324 323 322 321 320 319 320 318 317 317 316 315 314 314 315 314 313 310 310 311 311 309 306 305 303 301 299 298 296 294 289 289 288 287 290 290 289 286 286 286 288
319 322 323 321 321 320 320 320 320 318 317 316 315 313 311 311 312 312 311 311 310 311 310 309 306 305 306 305 302 300 302 303 302 297 288 286 285 288 289 288 287 287 282
318 319 320 319 318 318 317 317 316 313 313 312 313 313 311 310 309 308 308 309 309 310 310 308 307 306 308 305 304 304 302 301 302 302 300 297 295 292 289 287 280 279 268
316 320 320 318 317 316 314 312 311 310 310 311 311 311 311 310 308 308 307 309 310 310 309 308 308 312 313 314 306 303 303 307 310 311 310 309 305 303 299 285 278 280 255
318 319 318 316 314 311 308 308 309 310 309 309 310 312 313 313 314 313 313 313 312 310 310 311 314 318 316 314 310 303 302 306 306 309 312 316 320 321 320 307 283 265 266
319 321 320 317 314 312 310 310 309 310 312 313 312 312 312 312 314 316 320 319 318 312 311 313 316 321 319 318 317 317 319 319 323 326 331 334 333 336 343 334 320 267 277
320 321 320 320 319 317 314 313 312 312 313 313 313 312 312 313 315 317 320 322 324 318 313 315 318 322 328 336 340 341 342 344 345 354 344 348 357 10 19 30 31 28 356
317 316 318 319 319 317 316 315 315 316 317 315 313 311 312 313 320 325 315 319 322 318 321 327 333 341 351 357 357 360 1 8 10 13 20 22 34 42 48 48 50 52 51
313 313 313 315 317 317 317 317 318 318 319 315 312 311 313 312 312 310 313 314 311 313 322 334 347 349 358 8 17 23 23 35 36 36 45 58 63 57 53 44 39 28 30
309 310 311 315 316 317 318 318 318 319 322 316 309 307 307 303 296 304 314 309 303 309 320 334 338 351 6 17 33 35 43 50 46 56 59 59 50 41 31 22 15 12 16
309 312 312 314 315 318 319 319 320 321 323 322 310 305 301 298 299 308 316 300 297 311 308 301 319 347 12 8 9 18 25 31 31 37 33 24 15 4 358 356 355 352 356
309 311 311 314 317 319 320 320 321 320 323 330 322 317 310 303 303 303 307 288 282 297 301 304 323 347 355 359 360 5 7 4 1 3 353 345 337 334 336 338 342 341 340
306 310 311 314 315 317 318 319 320 319 323 322 322 320 314 305 301 304 303 271 279 282 284 285 307 327 338 346 350 353 353 355 356 351 346 343 340 337 338 337 339 334 325
306 309 310 312 312 312 314 316 315 315 310 316 320 323 328 322 306 297 292 270 264 263 267 277 295 314 331 341 347 349 350 347 343 341 338 336 334 333 331 328 325 321 319
303 304 304 303 305 308 310 311 309 307 307 311 314 319 325 329 311 291 280 268 260 257 265 277 293 316 329 330 330 330 329 328 327 325 324 323 322 321 321 319 317 315 315
298 299 298 299 299 299 300 299 298 297 298 298 300 302 304 300 296 287 275 270 270 272 280 299 312 308 306 310 313 314 315 316 318 321 325 328 328 325 323 322 322 321 320
295 297 298 296 296 296 293 291 288 286 285 286 287 287 285 283 279 277 275 272 275 289 297 293 295 300 303 306 309 313 318 323 328 330 330 329 329 329 329 327 325 320 315
290 292 293 293 292 291 289 286 283 281 278 277 276 276 273 270 269 269 276 287 289 288 290 292 295 298 303 309 314 318 321 324 328 329 329 327 325 324 326 325 323 317 314
282 285 287 286 285 285 285 282 279 277 275 275 272 269 267 264 266 275 282 285 288 290 289 290 293 297 300 304 308 310 311 312 315 316 315 315 315 317 316 313 311 309 307
275 278 281 280 280 280 278 277 276 275 275 273 273 273 273 275 277 280 284 285 283 283 285 289 292 295 298 302 304 305 305 305 306 305 304 303 303 303 302 300 299 299 299
Wind_Speed_850mb
15 14 13 14 16 19 22 25 28 31 34 38 40 44 47 48 50 54 56 59 62 65 66 70 74 74 77 79 80 81 84 85 94 129 102 101 100 102 105 99 98 91 91
12 12 15 18 19 21 24 28 32 36 40 45 48 51 53 55 57 60 64 66 70 72 74 75 77 76 79 79 79 79 80 81 87 103 118 106 107 111 111 107 105 98 92
10 12 14 17 21 25 31 36 42 47 51 56 60 62 63 64 65 66 68 71 72 73 75 78 81 82 84 81 78 80 78 81 82 85 103 99 101 101 108 105 105 100 95
10 13 17 22 26 30 36 43 49 54 58 60 61 63 64 65 65 67 70 72 74 75 75 77 80 83 86 86 84 85 83 80 78 84 92 101 100 99 104 104 106 101 97
8 14 21 26 35 40 46 52 58 61 62 64 67 66 67 69 70 74 77 81 83 85 83 82 83 84 84 83 83 85 77 74 76 82 87 83 91 85 93 99 103 101 102
15 23 31 39 45 52 57 61 61 63 65 68 71 75 77 76 76 77 81 87 87 87 89 87 85 86 86 87 86 80 67 66 73 79 89 92 98 88 83 89 93 91 85
23 32 40 48 53 56 58 60 63 67 71 75 78 82 85 85 84 85 85 90 93 93 91 91 91 87 85 87 86 84 80 71 62 70 81 89 93 90 86 86 85 85 89
32 41 48 52 54 57 60 63 67 72 77 81 83 86 89 89 87 88 90 91 94 94 92 90 90 89 82 75 77 81 79 77 74 69 68 76 82 86 80 78 74 73 73
40 44 47 51 54 58 63 67 70 75 77 80 82 86 89 89 84 83 86 90 94 94 92 89 86 84 75 59 67 75 79 77 72 68 64 65 69 71 68 65 63 54 57
41 43 46 52 58 64 69 72 75 77 81 83 84 80 79 82 78 76 79 83 87 88 87 84 79 71 67 62 61 63 69 70 66 63 57 57 52 55 51 41 36 39 43
39 44 49 55 63 68 75 76 78 79 81 83 85 84 85 81 77 70 66 68 71 77 78 79 73 62 56 52 51 55 60 61 58 50 47 41 38 36 28 19 18 21 25
40 45 52 58 63 69 74 75 75 77 81 83 85 86 84 81 76 70 59 52 56 60 65 64 58 53 53 51 45 41 39 37 33 29 30 25 25 27 23 14 9 7 10
43 50 56 61 64 66 70 72 75 75 78 81 80 84 85 80 73 59 53 57 54 48 51 48 49 43 36 32 27 25 28 27 23 21 21 23 20 16 15 15 11 9 6
47 52 57 63 66 67 69 70 73 75 75 74 75 77 77 74 65 57 59 61 54 45 44 39 29 25 23 26 27 25 25 26 24 21 19 18 17 17 18 19 16 16 12
50 54 57 63 67 70 71 72 73 71 65 68 67 66 64 64 54 57 59 49 44 38 37 24 20 19 18 22 25 31 25 24 26 24 22 22 25 23 23 22 19 18 19
51 53 57 63 67 69 72 76 70 68 57 50 50 48 50 49 49 55 44 33 28 30 21 16 16 14 16 17 19 26 34 29 28 25 22 20 21 22 23 23 22 22 20
49 52 58 61 64 66 68 70 76 68 52 40 41 37 36 44 45 39 33 26 28 25 18 14 12 11 12 14 17 20 22 22 20 17 14 12 13 16 20 21 20 18 15
47 51 56 58 59 60 61 61 59 60 61 49 30 36 37 40 41 36 28 25 26 23 16 11 9 9 11 12 14 16 17 16 15 14 12 13 14 16 19 19 18 16 15
45 47 51 54 55 54 53 53 49 46 43 43 44 38 39 37 35 30 24 23 25 21 16 10 8 7 8 10 12 15 16 16 17 17 16 16 17 18 17 17 16 15 15
43 43 46 48 50 48 44 42 40 35 35 36 38 39 35 22 17 17 15 14 13 12 11 8 6 7 8 10 12 12 13 14 15 16 17 17 17 17 16 16 15 15 14
40 40 41 41 43 43 41 36 33 31 31 31 30 30 26 18 14 13 12 10 10 8 8 8 7 8 11 13 14 16 19 21 22 22 22 21 20 19 18 17 16 16 16
37 37 37 37 37 37 35 33 30 29 28 28 27 25 22 17 14 12 10 10 9 9 9 9 11 14 16 18 22 25 26 26 25 24 22 21 20 19 18 18 17 17 17
34 36 36 35 34 33 32 30 28 27 26 26 26 24 21 19 16 15 12 11 10 10 13 16 19 22 25 27 26 24 21 20 19 19 19 19 18 18 18 18 17 17 18
33 34 35 34 33 32 31 30 29 28 28 27 26 24 22 19 17 16 15 15 17 21 23 26 26 25 23 20 18 19 19 19 19 19 20 20 20 20 20 19 20 20 20
34 35 34 34 33 32 31 30 29 29 28 27 27 26 25 24 21 20 22 25 28 29 28 25 21 19 19 19 19 19 20 22 23 24 26 27 27 27 26 26 25 24 23
35 35 35 35 34 34 33 33 32 32 31 31 32 32 33 32 31 30 30 30 28 26 24 22 22 22 23 24 26 28 30 32 33 35 35 36 36 35 34 33 32 30 29
Wind_Direction_850mb
83 64 47 28 13 0 352 347 342 338 334 332 330 328 325 323 320 317 315 313 311 309 308 305 303 303 298 295 288 282 280 277 273 284 284 288 288 286 293 289 291 291 289
67 42 25 14 6 357 351 345 339 336 333 329 325 323 322 320 318 316 313 312 310 309 309 307 305 304 300 299 295 289 283 275 276 278 286 285 284 289 289 293 293 292 290
54 31 16 2 353 346 342 336 332 328 325 323 321 319 318 318 317 315 313 312 310 308 308 307 306 304 302 302 299 294 291 288 279 277 282 286 286 285 288 288 291 291 291
28 6 354 343 338 332 328 325 323 321 318 316 314 314 314 313 313 312 310 308 307 307 306 306 305 304 304 304 301 297 295 289 289 285 283 285 286 287 287 287 290 291 292
348 337 331 329 328 326 325 323 321 320 320 319 319 318 318 317 318 315 312 310 309 307 306 305 304 303 303 303 303 301 299 294 286 284 282 284 285 284 286 292 292 295 295
331 330 328 326 326 324 323 321 321 320 319 318 317 317 316 315 315 314 313 311 310 309 309 308 305 303 302 300 300 299 295 290 288 287 286 286 286 285 286 288 289 289 289
326 326 324 323 322 321 320 319 320 318 317 317 316 315 314 314 315 314 313 310 310 311 311 309 306 305 303 301 299 298 296 294 289 289 288 287 290 290 289 286 286 286 288
319 322 323 321 321 320 320 320 320 318 317 316 315 313 311 311 312 312 311 311 310 311 310 309 306 305 306 305 302 300 302 303 302 297 288 286 285 288 289 288 287 287 282
318 319 320 319 318 318 317 317 316 313 313 312 313 313 311 310 309 308 308 309 309 310 310 308 307 306 308 305 304 304 302 301 302 302 300 297 295 292 289 287 280 279 268
316 320 320 318 317 316 314 312 311 310 310 311 311 311 311 310 308 308 307 309 310 310 309 308 308 312 313 314 306 303 303 307 310 311 310 309 305 303 299 285 278 280 255
318 319 318 316 314 311 308 308 309 310 309 309 310 312 313 313 314 313 313 313 312 310 310 311 314 318 316 314 310 303 302 306 306 309 312 316 320 321 320 307 283 265 266
319 321 320 317 314 312 310 310 309 310 312 313 312 312 312 312 314 316 320 319 318 312 311 313 316 321 319 318 317 317 319 319 323 326 331 334 333 336 343 334 320 267 277
320 321 320 320 319 317 314 313 312 312 313 313 313 312 312 313 315 317 320 322 324 318 313 315 318 322 328 336 340 341 342 344 345 354 344 348 357 10 19 30 31 28 356
317 316 318 319 319 317 316 315 315 316 317 315 313 311 312 313 320 325 315 319 322 318 321 327 333 341 351 357 357 360 1 8 10 13 20 22 34 42 48 48 50 52 51
313 313 313 315 317 317 317 317 318 318 319 315 312 311 313 312 312 310 313 314 311 313 322 334 347 349 358 8 17 23 23 35 36 36 45 58 63 57 53 44 39 28 30
309 310 311 315 316 317 318 318 318 319 322 316 309 307 307 303 296 304 314 309 303 309 320 334 338 351 6 17 33 35 43 50 46 56 59 59 50 41 31 22 15 12 16
309 312 312 314 315 318 319 319 320 321 323 322 310 305 301 298 299 308 316 300 297 311 308 301 319 347 12 8 9 18 25 31 31 37 33 24 15 4 358 356 355 352 356
309 311 311 314 317 319 320 320 321 320 323 330 322 317 310 303 303 303 307 288 282 297 301 304 323 347 355 359 360 5 7 4 1 3 353 345 337 334 336 338 342 341 340
306 310 311 314 315 317 318 319 320 319 323 322 322 320 314 305 301 304 303 271 279 282 284 285 307 327 338 346 350 353 353 355 356 351 346 343 340 337 338 337 339 334 325
306 309 310 312 312 312 314 316 315 315 310 316 320 323 328 322 306 297 292 270 264 263 267 277 295 314 331 341 347 349 350 347 343 341 338 336 334 333 331 328 325 321 319
303 304 304 303 305 308 310 311 309 307 307 311 314 319 325 329 311 291 280 268 260 257 265 277 293 316 329 330 330 330 329 328 327 325 324 323 322 321 321 319 317 315 315
298 299 298 299 299 299 300 299 298 297 298 298 300 302 304 300 296 287 275 270 270 272 280 299 312 308 306 310 313 314 315 316 318 321 325 328 328 325 323 322 322 321 320
295 297 298 296 296 296 293 291 288 286 285 286 287 287 285 283 279 277 275 272 275 289 297 293 295 300 303 306 309 313 318 323 328 330 330 329 329 329 329 327 325 320 315
290 292 293 293 292 291 289 286 283 281 278 277 276 276 273 270 269 269 276 287 289 288 290 292 295 298 303 309 314 318 321 324 328 329 329 327 325 324 326 325 323 317 314
282 285 287 286 285 285 285 282 279 277 275 275 272 269 267 264 266 275 282 285 288 290 289 290 293 297 300 304 308 310 311 312 315 316 315 315 315 317 316 313 311 309 307
275 278 281 280 280 280 278 277 276 275 275 273 273 273 273 275 277 280 284 285 283 283 285 289 292 295 298 302 304 305 305 305 306 305 304 303 303 303 302 300 299 299 299